Location: Brivio
(45.7333°N, 9.4500°E)
Time: 22:44:40
(UTC+00:00)

N. Korean satellite - Pass Details

Date: 18 December 2019
Orbit: 454 x 507 km, 97.2° (Epoch: 21 January)

Event Time Altitude Azimuth Distance (km) Brightness Sun altitude
Rises 16:53:59 0° 188° (S) 2,590 10.7 -12.4°
Reaches altitude 10° 16:56:13 10° 198° (SSW) 1,705 9.9 -12.8°
Maximum altitude 16:59:33 33° 263° (W) 865 8.6 -13.3°
Drops below altitude 10° 17:02:53 10° 329° (NNW) 1,696 9.5 -13.9°
Sets 17:05:06 0° 339° (NNW) 2,574 10.3 -14.2°
